Flag for Eritrea Weather past 2 weeks in Teseney, Eritrea

Now
N/A

Clear.


Feels Like: N/A
Forecast: 73 / 96 °F
Wind: 8 mph from South

Location: Khartoum Airport

Current Time: Sep 22, 2014 at 4:05:19 AM

Latest Report: Sep 22, 2014 at 3:30 AM


Visibility: 10 mi

Pressure: 29.86 "Hg

Humidity: N/A

Dew point: N/A

Location of TeseneyLocation

Historic Weather in Teseney — Graph

°F

Teseney temperature yesterday

Maximum temperature yesterday: 104 °F (at 4:00 PM)
Minimum temperature yesterday: 84 °F (at 6:00 AM)
Average temperature yesterday: 92 °F

Past Weeks' High & Low Weather Summary

 TemperatureHumidityPressure
High106 °F (Sep 20, 3:00 PM)94% (Sep 9, 6:00 AM)30.12 "Hg (Sep 9, 6:00 AM)
Low72 °F (Sep 9, 6:00 AM)11% (Sep 20, 2:00 PM)29.74 "Hg (Sep 12, 5:30 PM)
Average89 °F46%29.87 "Hg
* Reported Sep 7 3:00 AM — Sep 22 3:00 AM, Teseney, Weather by CustomWeather, © 2014

Note: Actual official high and low records may vary slightly from our data, if they occured in-between our weather recording intervals... More about our weather records

Advertising

Teseney weather history for previous 24 hours

 ConditionsComfort  
Time TempWeatherWind HumidityBarometerVisibility
3:00 AM
Sep 22
81 °FPassing clouds.12 mph58%29.89 "HgN/A
2:30 AMN/APassing clouds.14 mphN/A29.89 "HgN/A
2:00 AM84 °FPassing clouds.24 mph55%29.89 "HgN/A
1:30 AMN/APassing clouds.6 mphN/AN/AN/A
1:00 AMN/APassing clouds.N/AN/AN/AN/A
12:30 AMN/APassing clouds.7 mphN/AN/AN/A
12:00 AM93 °FClear.6 mph24%29.86 "Hg10 mi
11:30 PM
Sep 21
N/AClear.6 mphN/A29.86 "Hg10 mi
11:00 PM95 °FClear.7 mph30%29.86 "Hg10 mi
10:30 PMN/AClear.7 mphN/A29.86 "Hg10 mi
10:00 PM95 °FClear.7 mph30%29.83 "Hg10 mi
8:30 PMN/AClear.12 mphN/A29.77 "Hg10 mi
7:30 PMN/AClear.N/AN/A29.77 "Hg10 mi
7:00 PM97 °FClear.6 mph16%29.77 "Hg10 mi
6:30 PMN/A3 mphN/AN/AN/A
5:30 PMN/APassing clouds.7 mphN/A29.74 "HgN/A
4:00 PM104 °FPassing clouds.7 mph14%29.74 "HgN/A
3:30 PMN/APassing clouds.6 mphN/A29.77 "HgN/A
1:30 PMN/ASunny.10 mphN/A29.80 "Hg10 mi
1:00 PM100 °FSunny.13 mph15%29.83 "Hg10 mi
12:30 PMN/ASunny.10 mphN/A29.83 "Hg10 mi
12:00 PM99 °FSunny.13 mph17%29.86 "Hg10 mi
11:30 AMN/ASunny.9 mphN/A29.86 "Hg10 mi
11:00 AM95 °FSunny.9 mph22%29.86 "Hg10 mi
10:30 AMN/ASunny.13 mphN/A29.86 "Hg10 mi
9:30 AMN/ASunny.7 mphN/A29.86 "Hg10 mi
9:00 AM86 °FWarm.5 mph52%29.83 "Hg4 mi
8:30 AMN/A3 mphN/A29.86 "Hg4 mi
8:00 AM84 °FClear.5 mph58%29.83 "Hg4 mi
7:30 AMN/ASunny.No windN/A29.83 "Hg10 mi
7:00 AM84 °FSunny.2 mph58%29.80 "Hg10 mi
6:30 AMN/AClear.No windN/A29.80 "Hg10 mi
6:00 AM84 °FClear.6 mph58%29.80 "Hg10 mi
5:30 AMN/AClear.8 mphN/A29.80 "Hg10 mi
5:00 AM86 °FClear.12 mph49%29.80 "Hg10 mi
4:30 AMN/AClear.8 mphN/A29.77 "Hg10 mi
4:00 AM88 °FClear.No wind38%29.77 "Hg10 mi
Weather by CustomWeather, © 2014

See weather overviewHow to use our weather pages